Starlink 11297

operational
NORAD ID: 61060 Int'l Des: 2024-164 Owner: SPXS Country: US Constellation: starlink
LEOCIRCULAR

Über Starlink 11297

Beschreibung wird geladen...

Live-Position

3D-Globus wird geladen...

Nächste Überflüge

Höhenverlauf

Altitude vs Time

uPlot chart will show altitude changes over time

Zweizeiliger Elementsatz

1 61060U 24164L 25353.19448226 .00000294 00000-0 72899-5 0 9999
2 61060 53.1599 348.2667 0001476 96.7084 263.4102 15.69700441 72773
Epoch: 19. Dez. 2025 • Age: 14 hours

Aktueller Status

Höhe 363.9 km
Geschwindigkeit 7.70 km/s
Subsatellitenpunkt 47.11°N, 99.84°E
Startdatum 13. Sept. 2024
Alter 1.2 years
Typ internet

Technische Details

Klassifizierung Payload
Masse 960.00 kg
Trockenmasse 910.00 kg
Gesamtmasse 960.00 kg
Länge 0.30 m
Durchmesser 4.10 m
Spannweite 29.00 m
Form Box + pan
Hersteller SPXS
Bus-Typ Starlink V2MD
Phasenstatus In Orbit
Besitzer/Staat SPXS/US

Große Konstellationen

Loading constellations...